Regional Weather Roundup
Issued by NWS

Home | Current Version | Previous Version | Graphics & Text | Print | Product List | Glossary On
Versions: 1 2 3 4 5 6 7 8 9 10 11 12 13 14 15 16 17 18 19 20 21 22 23 24 25 26 27 28
000
ASUS45 KCYS 151210
RWRWY

WYOMING REGIONAL WEATHER ROUNDUP
NATIONAL WEATHER SERVICE CHEYENNE WY
600 AM MDT TUE APR 15 2014

NOTE:  "FAIR" INDICATES FEW OR NO CLOUDS BELOW 12,000 FEET
WITH NO SIGNIFICANT WEATHER AND/OR OBSTRUCTIONS TO VISIBILITY.

WYZ001-151300-
YELLOWSTONE NATIONAL PARK

CITY           SKY/WX    TMP DP  RH WIND       PRES   REMARKS
LK YELLOWSTONE   N/A     17  11  77 CALM      30.00F
6HR MIN TEMP:  15; 6HR MAX TEMP:  19;

W YELLOWSTONE  NOT AVBL

$$
WYZ002>013-054>058-071-098>099-151300-
NORTHERN WYOMING

CITY           SKY/WX    TMP DP  RH WIND       PRES   REMARKS
JACKSON        MOCLDY    30  16  55 S6        30.01F WCI  24
CODY           MOCLDY    43  10  26 NW6       29.84F
GREYBULL       CLOUDY    29  25  85 E5        29.87F WCI  24
6HR MIN TEMP:  29; 6HR MAX TEMP:  33;

WORLAND        CLOUDY    30  25  81 S3        29.87F
6HR MIN TEMP:  27; 6HR MAX TEMP:  35;

SHERIDAN       PTCLDY    30  20  66 N3        29.77F
6HR MIN TEMP:  26; 6HR MAX TEMP:  36;

BUFFALO        PTCLDY    37  14  38 SW6       29.80F WCI  32
6HR MIN TEMP:  33; 6HR MAX TEMP:  40;

GILLETTE       CLEAR     37  19  48 SW18      29.79F WCI  27
6HR MIN TEMP:  34; 6HR MAX TEMP:  38;

HULETT         FAIR      34  18  51 W9        29.80  WCI  26
NEWCASTLE      FAIR      25  18  74 CALM      29.86

$$
WYZ014>020-022>026-101>103-151300-
CENTRAL WYOMING

CITY           SKY/WX    TMP DP  RH WIND       PRES   REMARKS
BIG PINEY      MOCLDY    22  17  81 CALM      30.04F
6HR MIN TEMP:  21; 6HR MAX TEMP:  27;

PINEDALE       MOSUNNY   18  14  86 W5        30.05F WCI  11
DUBOIS         FAIR      32   3  29 NW14G20   29.93S WCI  22
LANDER         MOCLDY    35  19  52 W8        29.91F WCI  29
6HR MIN TEMP:  31; 6HR MAX TEMP:  38;

RIVERTON       CLOUDY    36  15  42 W10       29.91F WCI  28
6HR MIN TEMP:  33; 6HR MAX TEMP:  38;

CASPER         CLOUDY    37  19  48 SW16      29.90S WCI  28
6HR MIN TEMP:  31; 6HR MAX TEMP:  37;

DOUGLAS        MOCLDY    22  18  85 SE3       29.89F
6HR MIN TEMP:  21; 6HR MAX TEMP:  26;


$$
WYZ021-027>030-104>119-151300-
SOUTHERN WYOMING

CITY           SKY/WX    TMP DP  RH WIND       PRES   REMARKS
EVANSTON       MOCLDY    32  10  40 SW15      30.07F WCI  22
6HR MIN TEMP:  29; 6HR MAX TEMP:  33;

FORT BRIDGER   FAIR      35  12  39 W7        30.08F WCI  29
ROCK SPRINGS   MOCLDY    33   2  26 SW12      30.04F WCI  24
6HR MIN TEMP:  33; 6HR MAX TEMP:  37;

DIXON          FAIR      22  17  81 CALM      30.15S
RAWLINS        PTCLDY    31  13  47 SW15G25   30.03S WCI  20
6HR MIN TEMP:  30; 6HR MAX TEMP:  32;

SARATOGA       FAIR      27  16  63 SE10      30.06F WCI  17
LARAMIE        PTCLDY    29  13  51 S9        29.99F WCI  20
6HR MIN TEMP:  24; 6HR MAX TEMP:  30;

CHEYENNE       PTCLDY    35  15  44 W26G32    29.94F WCI  22
6HR MIN TEMP:  27; 6HR MAX TEMP:  36;

TORRINGTON     PTCLDY    23  18  81 E6        29.91F WCI  16
6HR MIN TEMP:  21; 6HR MAX TEMP:  25;

PINE BLUFFS    FAIR      23  19  86 S12       29.96F WCI  12

$$



USA.gov is the U.S. government's official web portal to all federal, state and local government web resources and services.